Regional Weather Roundup
Issued by NWS

Home | Current Version | Previous Version | Text Only | Print | Product List | Glossary Off
Versions: 1 2 3 4 5 6 7 8 9 10 11 12 13 14 15 16 17 18 19 20 21 22 23 24 25 26 27 28 29 30 31 32 33 34 35 36 37 38 39 40 41 42 43 44 45 46 47 48 49 50

000
ASUS43 KOAX 142002
RWRNE

WEATHER ROUNDUP FOR NEBRASKA
NATIONAL WEATHER SERVICE OMAHA NE
300 PM CDT SUN SEP 14 2014

NOTES: SATELLITE DATA IS BEING USED TO AUGMENT CLOUD COVER ABOVE
       12000 FEET.
       "FAIR" INDICATES FEW OR NO CLOUDS BELOW 12,000 FEET WITH NO
       SIGNIFICANT WEATHER AND/OR OBSTRUCTIONS TO VISIBILITY.

  * THESE STATIONS DO NOT REPORT WEATHER SUCH AS RAIN...SNOW OR FOG.

NEZ001>004-019>022-054>056-142100-
NEBRASKA PANHANDLE

CITY           SKY/WX    TMP DP  RH WIND       PRES   REMARKS
SCOTTSBLUFF    SUNNY     64  50  60 VRB3      30.04F
ALLIANCE       MOSUNNY   69  54  58 NW3       30.03F
CHADRON        MOSUNNY   62  45  53 VRB5      30.06F
KIMBALL        MOSUNNY   76  47  36 SE8       30.01F
SIDNEY         MOSUNNY   74  48  39 VRB5      30.03F
$$

NEZ057>060-069>072-079>082-142100-
SOUTHWEST NEBRASKA

CITY           SKY/WX    TMP DP  RH WIND       PRES   REMARKS
NORTH PLATTE   SUNNY     71  53  52 S15G23    30.03F
IMPERIAL       MOSUNNY   74  55  51 SE13G23   30.02F
LEXINGTON      SUNNY     70  55  58 SE18G26   30.04F
MCCOOK         MOSUNNY   74  55  51 SE21G26   30.03F
OGALLALA       MOSUNNY   76  57  51 SE13G20   30.00F
$$

NEZ005>010-023>029-035>040-094-142100-
NORTH CENTRAL NEBRASKA

CITY           SKY/WX    TMP DP  RH WIND       PRES   REMARKS
VALENTINE      CLOUDY    64  43  46 E15       30.07F
AINSWORTH      CLOUDY    61  46  57 E12       30.08F
BROKEN BOW     MOSUNNY   67  51  56 S16G25    30.05F
O`NEILL        SUNNY     65  50  58 E3        30.10F
ORD            SUNNY     68  51  54 SE14      30.04F
THEDFORD       MOSUNNY   70  52  53 S12G18    30.04F
$$

NEZ041-046>049-061>064-073>077-083>087-142100-
SOUTH CENTRAL NEBRASKA

CITY           SKY/WX    TMP DP  RH WIND       PRES   REMARKS
GRAND ISLAND   PTSUNNY   71  52  50 S13G21    30.08F
AURORA         MOSUNNY   69  48  46 S9        30.09F
HASTINGS       MOSUNNY   69  50  50 S14       30.08F
HEBRON         SUNNY     72  48  42 SE9       30.10F
HOLDREGE       MOSUNNY   69  51  52 SE15      30.06F
KEARNEY *      SUNNY     70  54  56 SE16G22   30.07F
YORK           MOSUNNY   68  54  60 S10       30.10F
$$

NEZ011>018-030>034-042>045-142100-
NORTHEAST NEBRASKA

CITY           SKY/WX    TMP DP  RH WIND       PRES   REMARKS
NORFOLK        MOSUNNY   68  49  50 SE12      30.10F
ALBION         SUNNY     67  51  55 S13G18    30.08F
BLAIR          MOSUNNY   69  48  46 S10       30.13F
COLUMBUS *     MOSUNNY   68  48  49 S10G17    30.11F
FREMONT        MOSUNNY   69  49  49 SE8       30.12F
TEKAMAH        MOSUNNY   69  48  47 SW6       30.12F
WAYNE          MOSUNNY   68  48  48 S9        30.11F
$$

NEZ050>053-065>068-078-088>093-142100-
SOUTHEAST NEBRASKA

CITY           SKY/WX    TMP DP  RH WIND       PRES   REMARKS
LINCOLN        MOSUNNY   72  49  44 SE14      30.12F
OMAHA EPPLEY   PTSUNNY   70  48  45 S9        30.13F
BEATRICE       SUNNY     72  49  45 SE7       30.10F
FALLS CITY     SUNNY     73  51  46 S9        30.13F
NEBRASKA CITY  SUNNY     71  39  31 S10G16    30.13F
PLATTSMOUTH    SUNNY     69  46  43 S9        30.13F
$$

NEZ044-045-051>053-067-142100-
OMAHA AREA

CITY           SKY/WX    TMP DP  RH WIND       PRES   REMARKS
OMAHA EPPLEY   PTSUNNY   70  48  45 S9        30.13F
BLAIR          MOSUNNY   69  48  46 S10       30.13F
FREMONT        MOSUNNY   69  49  49 SE8       30.12F
PLATTSMOUTH    SUNNY     69  46  43 S9        30.13F
WAHOO          FAIR      71  48  43 SE6       30.12F
$$



USA.gov is the U.S. government's official web portal to all federal, state and local government web resources and services.